Location: Valdosta
(30.8330°N, 83.2790°W)
Time: 21:41:20
(UTC-05:00)

Amateur Radio Satellites - All Passes

Search period start: 09 February 2016 21:11
Search period end: 10 February 2016 21:11
Location: Valdosta, 30.8330°N, 83.2790°W

Satellite Date Start Highest point End Downlink Frequencies (MHz)
Time Altitude Azimuth
CUTE 1.7 + AOD 2 09 Feb 21:13:21 21:16:02 17° 265° (W) 21:18:44 437.475
DELFI C3 09 Feb 21:14:32 21:18:10 36° 74° (ENE) 21:21:49 145.870
SEEDS 09 Feb 21:19:51 21:22:46 18° 265° (W) 21:25:41 437.485
PRISM 09 Feb 21:28:50 21:31:33 17° 291° (WNW) 21:34:16 437.425
AAUSAT CUBESAT 2 09 Feb 21:34:45 21:37:50 20° 264° (W) 21:40:57 437.432
ZACube-1 09 Feb 21:56:21 22:00:20 39° 261° (W) 22:04:16 437.345
AIST 1 09 Feb 21:57:19 22:01:21 37° 80° (E) 22:05:20
PCSat 09 Feb 22:04:36 22:08:52 24° 254° (WSW) 22:13:06 145.827
FUNcube-1 09 Feb 22:05:44 22:09:32 32° 262° (W) 22:13:16 145.935
VELOX 1 09 Feb 22:10:18 22:11:54 12° 67° (ENE) 22:13:29 145.980
UNISAT 6 09 Feb 22:16:07 22:19:45 25° 97° (E) 22:23:27 437.425
HUMSAT D 09 Feb 22:16:23 22:20:28 89° 79° (ENE) 22:24:33 437.325/437.525
AISAT 09 Feb 22:25:13 22:28:23 19° 70° (ENE) 22:31:33 437.250
Cosmos 2499 09 Feb 22:26:29 22:34:19 50° 271° (W) 22:41:34 435.465 / 435.565
UKube-1 09 Feb 22:38:36 22:42:03 23° 71° (ENE) 22:45:30 .
CUBEBUG 1 09 Feb 22:44:51 22:48:27 25° 71° (ENE) 22:52:04 437.445
ESTCUBE 1 09 Feb 22:45:23 22:49:29 35° 73° (ENE) 22:53:38 437.505/2401.250
ISS 09 Feb 22:48:45 22:51:15 20° 38° (NE) 22:53:44 145.825
DX 1 09 Feb 22:49:39 22:53:43 38° 73° (ENE) 22:57:48 434.975-435.025
DELFI C3 09 Feb 22:51:51 22:53:11 11° 267° (W) 22:54:30 145.870
GONETS M04 09 Feb 22:59:34 23:02:29 12° 281° (W) 23:05:26
ANTELSAT 09 Feb 23:00:32 23:04:54 88° 280° (W) 23:09:22 437.575/2403.000
POPSAT HIP 1 09 Feb 23:02:08 23:04:58 17° 96° (E) 23:07:47 437.405
50 SAT 09 Feb 23:03:27 23:07:05 65° 77° (ENE) 23:10:46 437.505
NANOSAT C BR1 09 Feb 23:06:44 23:09:47 19° 96° (E) 23:12:50 145.865
TIGRISAT 09 Feb 23:07:29 23:11:50 77° 283° (WNW) 23:16:16 435.000
DUCHIFAT 1 09 Feb 23:08:15 23:11:16 19° 96° (E) 23:14:17 145.980
RS-15 09 Feb 23:08:50 23:19:31 37° 255° (WSW) 23:30:12 29.354- 29.394
QB50P1 09 Feb 23:14:13 23:17:43 25° 97° (E) 23:21:12 145.935-145.965
PHONESAT 2.4 09 Feb 23:36:40 23:39:14 21° 143° (SE) 23:41:51 2401.200-2431.200
AIST 1 09 Feb 23:36:51 23:38:30 12° 274° (W) 23:40:09
VELOX 1 09 Feb 23:43:34 23:47:53 49° 260° (W) 23:52:13 145.980
UNISAT 6 09 Feb 23:53:02 23:56:17 21° 289° (WNW) 23:59:36 437.425
AISAT 10 Feb 00:00:44 00:04:38 29° 262° (W) 00:08:32 437.250
POLYITAN 1 10 Feb 00:06:12 00:10:22 64° 284° (WNW) 00:14:31 437.675
QB50P2 10 Feb 00:06:53 00:11:02 61° 285° (WNW) 00:15:10 145.880/145.840
BUGSAT 1 10 Feb 00:09:31 00:13:29 57° 101° (E) 00:17:25 437.445
UKube-1 10 Feb 00:14:35 00:17:58 22° 263° (W) 00:21:22 .
CUBEBUG 1 10 Feb 00:21:13 00:24:38 22° 264° (W) 00:28:03 437.445
SPROUT 10 Feb 00:22:59 00:27:15 63° 259° (W) 00:31:31 437.525
ESTCUBE 1 10 Feb 00:23:39 00:26:21 16° 265° (W) 00:29:04 437.505/2401.250
ISS 10 Feb 00:24:55 00:27:39 26° 231° (SW) 00:30:24 145.825
DX 1 10 Feb 00:27:49 00:29:59 14° 265° (W) 00:32:11 434.975-435.025
TISAT 1 10 Feb 00:32:22 00:36:30 53° 75° (ENE) 00:40:37 437.305
POPSAT HIP 1 10 Feb 00:37:10 00:40:43 27° 288° (WNW) 00:44:15 437.405
NANOSAT C BR1 10 Feb 00:42:03 00:45:26 24° 288° (WNW) 00:48:49 145.865
DUCHIFAT 1 10 Feb 00:43:30 00:46:53 24° 288° (WNW) 00:50:16 145.980
QB50P1 10 Feb 00:50:20 00:53:18 19° 290° (WNW) 00:56:15 145.935-145.965
ITUPSAT 1 10 Feb 01:07:59 01:11:35 22° 69° (ENE) 01:15:12 437.325
PHONESAT 2.4 10 Feb 01:13:10 01:16:21 47° 335° (NNW) 01:19:33 2401.200-2431.200
BEESAT 10 Feb 01:16:02 01:20:01 27° 71° (ENE) 01:24:01 436.000
JAS-2 10 Feb 01:33:09 01:37:46 28° 96° (E) 01:42:09 435.910
CUSAT 1 10 Feb 01:42:23 01:49:52 59° 93° (E) 01:57:50 437.405
Cosmos 2491 10 Feb 01:49:02 01:56:16 28° 75° (ENE) 02:03:28 435.465 / 435.565
Oscar 19 10 Feb 02:06:49 02:11:57 80° 284° (WNW) 02:17:04 437.125/150
SWISSCUBE 10 Feb 02:07:30 02:12:14 68° 258° (WSW) 02:16:59 437.505
DANDE 10 Feb 02:15:42 02:22:52 61° 92° (E) 02:31:08 436.750
YUBILEINY 10 Feb 02:32:26 02:39:27 28° 85° (E) 02:46:28 435.215
Gurwin Techsat 1B 10 Feb 02:37:51 02:43:11 72° 102° (ESE) 02:48:28 435.225
BEESAT 3 10 Feb 02:38:57 02:42:45 45° 60° (ENE) 02:46:31 437.485
STARS 10 Feb 02:40:09 02:42:21 14° 68° (ENE) 02:44:33 437.465
ITUPSAT 1 10 Feb 02:45:05 02:49:12 29° 262° (W) 02:53:21 437.325
MOZHAYETS 4 10 Feb 02:51:23 02:53:18 13° 67° (ENE) 02:55:13
PHONESAT 2.4 10 Feb 02:51:52 02:54:07 17° 351° (N) 02:56:21 2401.200-2431.200
BEESAT 10 Feb 02:53:58 02:57:42 23° 263° (W) 03:01:28 436.000
KKS-1 10 Feb 02:55:03 02:59:15 41° 74° (ENE) 03:03:26 437.445
BEESAT 2 10 Feb 03:03:10 03:07:05 55° 61° (ENE) 03:10:57 435.950
ITAMSAT 1 10 Feb 03:15:38 03:20:53 86° 101° (ESE) 03:26:07 435.822/435.867
JAS-2 10 Feb 03:18:18 03:22:44 25° 292° (WNW) 03:26:57 435.910
CUSAT 1 10 Feb 03:26:14 03:32:31 26° 288° (WNW) 03:39:01 437.405
Cosmos 2491 10 Feb 03:44:57 03:53:17 51° 270° (W) 04:01:38 435.465 / 435.565
SO-50 10 Feb 04:00:22 04:03:57 21° 109° (ESE) 04:07:36 436.795
DANDE 10 Feb 04:00:24 04:06:22 25° 290° (WNW) 04:12:54 436.750
Cosmos 2504 10 Feb 04:03:55 04:09:56 22° 82° (E) 04:16:07 435.465 / 435.565
STARS 10 Feb 04:14:10 04:18:19 40° 261° (W) 04:22:29 437.465
AO-7 10 Feb 04:17:10 04:25:29 71° 105° (ESE) 04:33:43 29.400- 29.500
HORYU 2 10 Feb 04:18:56 04:22:43 27° 98° (E) 04:26:29 437.375
Gurwin Techsat 1B 10 Feb 04:20:57 04:22:27 11° 296° (WNW) 04:23:55 435.225
MOZHAYETS 4 10 Feb 04:25:38 04:30:00 47° 261° (W) 04:34:25
YUBILEINY 10 Feb 04:27:16 04:35:40 51° 280° (W) 04:44:12 435.215
PHONESAT 2.4 10 Feb 04:29:57 04:32:10 17° 8° (N) 04:34:22 2401.200-2431.200
M-CUBED/EXP-1 PRIME 10 Feb 04:32:22 04:35:44 48° 105° (ESE) 04:39:21 437.505
KKS-1 10 Feb 04:33:51 04:35:56 13° 266° (W) 04:38:01 437.445
AUBIESAT-1 10 Feb 04:42:01 04:45:29 53° 105° (ESE) 04:49:09 437.475
AIST 2 10 Feb 04:59:08 05:03:16 77° 243° (WSW) 05:07:20 435.215
CUBESAT XI-V 10 Feb 05:06:41 05:11:01 39° 73° (ENE) 05:15:23 437.345
SO-50 10 Feb 05:39:43 05:44:10 35° 303° (WNW) 05:48:43 436.795
LilacSat-2 10 Feb 05:48:37 05:49:01 10° 93° (E) 05:49:25 437.200
STRAND 1 10 Feb 05:53:00 05:55:52 15° 66° (ENE) 05:58:45 437.568
Cosmos 2504 10 Feb 05:54:05 06:02:25 65° 278° (W) 06:11:13 435.465 / 435.565
HORYU 2 10 Feb 05:55:48 05:59:05 21° 290° (WNW) 06:02:22 437.375
PHONESAT 2.4 10 Feb 06:06:46 06:09:55 45° 24° (NNE) 06:13:04 2401.200-2431.200
AO-7 10 Feb 06:11:36 06:17:26 22° 301° (WNW) 06:23:16 29.400- 29.500
CUTE-I 10 Feb 06:34:02 06:39:18 55° 101° (E) 06:44:34 437.470
PRISM 10 Feb 06:40:01 06:40:43 10° 67° (ENE) 06:41:26 437.425
GOMX 1 10 Feb 06:43:52 06:45:51 13° 93° (E) 06:47:46 467.674
CUBESAT XI-V 10 Feb 06:45:45 06:48:29 15° 266° (W) 06:51:14 437.345
JUGNU 10 Feb 06:47:22 06:49:57 13° 162° (SSE) 06:52:31 437.505
Cubesat XI-IV 10 Feb 06:47:44 06:53:08 77° 103° (ESE) 06:58:31 437.490
BRITE-PL 10 Feb 07:15:21 07:19:59 81° 103° (ESE) 07:24:16 437.365/2234.400
LilacSat-2 10 Feb 07:19:58 07:23:26 35° 285° (WNW) 07:26:54 437.200
STRAND 1 10 Feb 07:29:40 07:34:34 49° 260° (W) 07:39:32 437.568
PHONESAT 2.4 10 Feb 07:44:26 07:47:02 22° 217° (SW) 07:49:37 2401.200-2431.200
GONETS M04 10 Feb 07:58:46 08:04:46 21° 83° (E) 08:10:46
DOVE 4 10 Feb 07:59:33 08:03:39 54° 100° (E) 08:07:42 437.250
HO-68 10 Feb 08:09:48 08:16:21 37° 99° (E) 08:22:50 435.675
PRISM 10 Feb 08:11:34 08:15:34 48° 260° (W) 08:19:36 437.425
CANX-2 10 Feb 08:11:41 08:15:33 32° 98° (E) 08:19:24 2200.000
CUTE-I 10 Feb 08:15:53 08:18:49 15° 294° (WNW) 08:21:46 437.470
GOMX 1 10 Feb 08:20:09 08:24:06 35° 287° (WNW) 08:27:54 467.674
O/OREOS (USA 219) 10 Feb 08:21:14 08:25:38 60° 290° (WNW) 08:30:04 437.305
SRMSAT 10 Feb 08:26:16 08:26:26 10° 160° (SSE) 08:26:36 437.500
Cubesat XI-IV 10 Feb 08:31:20 08:32:29 11° 296° (WNW) 08:33:38 437.490
JUGNU 10 Feb 08:33:47 08:38:24 23° 171° (S) 08:42:58 437.505
CINEMA 3 10 Feb 08:51:31 08:55:40 73° 101° (E) 08:59:52 145.822/145.860
COMPASS 1 10 Feb 08:53:04 08:57:09 48° 99° (E) 09:01:14 437.405
Oscar 11 10 Feb 08:56:23 08:58:58 15° 95° (E) 09:01:33 145.826/435.025
CUBEBUG 2 10 Feb 08:56:46 09:00:16 25° 97° (E) 09:03:50 437.445
UWE-3 10 Feb 08:57:23 09:00:17 18° 96° (E) 09:03:12 435.000/436.395/437.385
CUTE 1.7 + AOD 2 10 Feb 09:01:57 09:06:11 65° 284° (WNW) 09:10:26 437.475
AO-85 10 Feb 09:02:20 09:04:47 13° 105° (ESE) 09:07:16 145.980
Cosmos 2499 10 Feb 09:03:15 09:09:57 26° 84° (E) 09:16:47 435.465 / 435.565
SEEDS 10 Feb 09:07:42 09:11:58 76° 282° (WNW) 09:16:12 437.485
UNISAT 6 10 Feb 09:11:55 09:13:30 12° 68° (ENE) 09:15:04 437.425
AAUSAT CUBESAT 2 10 Feb 09:21:18 09:25:31 89° 287° (WNW) 09:29:43 437.432
CANX-2 10 Feb 09:48:28 09:51:06 16° 290° (WNW) 09:53:44 2200.000
ZACube-1 10 Feb 09:49:35 09:53:45 54° 100° (E) 09:57:59 437.345
GONETS M04 10 Feb 09:52:11 10:00:45 63° 278° (W) 10:09:23
ANTELSAT 10 Feb 09:54:12 09:58:15 39° 74° (ENE) 10:02:15 437.575/2403.000
HO-68 10 Feb 09:57:34 10:03:52 34° 293° (WNW) 10:10:09 435.675
FUNcube-1 10 Feb 09:58:24 10:02:38 68° 102° (ESE) 10:06:56 145.935
TIGRISAT 10 Feb 10:00:51 10:04:59 45° 75° (ENE) 10:09:05 435.000
HUMSAT D 10 Feb 10:05:56 10:09:09 21° 96° (E) 10:12:22 437.325/437.525
SRMSAT 10 Feb 10:10:40 10:15:00 21° 168° (SSE) 10:19:19 437.500
AIST 1 10 Feb 10:20:55 10:24:43 29° 91° (E) 10:28:33
JUGNU 10 Feb 10:21:56 10:26:53 28° 181° (S) 10:31:50 437.505
Oscar 11 10 Feb 10:31:13 10:35:07 33° 287° (WNW) 10:39:01 145.826/435.025
COMPASS 1 10 Feb 10:31:24 10:32:15 11° 292° (WNW) 10:33:07 437.405
DELFI C3 10 Feb 10:32:21 10:36:20 59° 284° (WNW) 10:40:18 145.870
UWE-3 10 Feb 10:33:06 10:36:42 27° 287° (WNW) 10:40:21 435.000/436.395/437.385
CUBEBUG 2 10 Feb 10:33:41 10:36:43 20° 289° (WNW) 10:39:48 437.445
AO-85 10 Feb 10:39:28 10:44:40 63° 299° (WNW) 10:50:07 145.980
ESTCUBE 1 10 Feb 10:45:31 10:47:05 12° 93° (E) 10:48:39 437.505/2401.250
UNISAT 6 10 Feb 10:45:39 10:49:48 44° 261° (W) 10:53:55 437.425
POLYITAN 1 10 Feb 10:53:22 10:57:24 43° 74° (ENE) 11:01:25 437.675
QB50P2 10 Feb 10:53:57 10:58:01 46° 75° (ENE) 11:02:04 145.880/145.840
Cosmos 2499 10 Feb 10:53:59 11:02:23 57° 279° (W) 11:11:07 435.465 / 435.565
BUGSAT 1 10 Feb 10:54:40 10:57:44 20° 71° (ENE) 11:00:47 437.445
PCSat 10 Feb 10:56:19 11:01:43 84° 295° (WNW) 11:07:10 145.827
RS-15 10 Feb 11:11:43 11:22:24 61° 111° (ESE) 11:33:37 29.354- 29.394
POPSAT HIP 1 10 Feb 11:23:23 11:27:38 77° 258° (WSW) 11:31:52 437.405
NANOSAT C BR1 10 Feb 11:27:50 11:32:02 69° 258° (WSW) 11:36:15 145.865
DUCHIFAT 1 10 Feb 11:29:03 11:33:16 70° 259° (W) 11:37:28 145.980
ANTELSAT 10 Feb 11:33:14 11:35:04 12° 266° (W) 11:36:54 437.575/2403.000
QB50P1 10 Feb 11:36:07 11:40:15 51° 260° (W) 11:44:23 145.935-145.965
VELOX 1 10 Feb 11:39:12 11:43:26 46° 100° (E) 11:47:39 145.980
TIGRISAT 10 Feb 11:40:49 11:41:50 11° 266° (W) 11:42:49 435.000
HUMSAT D 10 Feb 11:41:22 11:44:39 23° 288° (WNW) 11:47:58 437.325/437.525
AISAT 10 Feb 11:55:50 12:00:14 81° 104° (ESE) 12:04:36 437.250
SRMSAT 10 Feb 11:58:41 12:03:38 28° 178° (S) 12:08:36 437.500
AIST 1 10 Feb 11:59:31 12:02:19 16° 284° (WNW) 12:05:07
UKube-1 10 Feb 12:06:04 12:10:24 88° 289° (WNW) 12:14:42 .
JUGNU 10 Feb 12:10:57 12:15:22 22° 191° (S) 12:19:47 437.505
CUBEBUG 1 10 Feb 12:14:11 12:18:32 76° 284° (WNW) 12:22:51 437.445
50 SAT 10 Feb 12:14:14 12:17:47 39° 285° (WNW) 12:21:21 437.505
SPROUT 10 Feb 12:14:53 12:18:43 32° 98° (E) 12:22:32 437.525
DX 1 10 Feb 12:19:05 12:23:17 49° 286° (WNW) 12:27:28 434.975-435.025
ESTCUBE 1 10 Feb 12:19:42 12:24:04 47° 286° (WNW) 12:28:24 437.505/2401.250
TISAT 1 10 Feb 12:23:47 12:25:36 13° 94° (E) 12:27:24 437.305
CUSAT 1 10 Feb 12:28:48 12:32:38 20° 69° (ENE) 12:35:48 437.405
BUGSAT 1 10 Feb 12:29:28 12:32:55 24° 263° (W) 12:36:22 437.445
POLYITAN 1 10 Feb 12:32:16 12:33:21 11° 266° (W) 12:34:26 437.675
QB50P2 10 Feb 12:33:24 12:33:59 10° 267° (W) 12:34:35 145.880/145.840
DANDE 10 Feb 13:05:27 13:11:04 30° 71° (ENE) 13:15:29 436.750
VELOX 1 10 Feb 13:17:46 13:19:27 12° 293° (WNW) 13:21:09 145.980
Oscar 19 10 Feb 13:17:57 13:23:09 85° 76° (ENE) 13:28:21 437.125/150
JAS-2 10 Feb 13:20:43 13:28:26 68° 74° (ENE) 13:35:34 435.910
BEESAT 10 Feb 13:24:11 13:25:04 10° 93° (E) 13:25:57 436.000
RS-15 10 Feb 13:25:31 13:35:19 35° 311° (NW) 13:45:39 29.354- 29.394
SRMSAT 10 Feb 13:47:36 13:52:18 25° 188° (S) 13:57:00 437.500
SPROUT 10 Feb 13:51:51 13:54:23 16° 291° (WNW) 13:56:56 437.525
Gurwin Techsat 1B 10 Feb 13:53:24 13:58:39 66° 74° (ENE) 14:03:55 435.225
TISAT 1 10 Feb 13:57:31 14:01:21 36° 286° (WNW) 14:05:10 437.305
JUGNU 10 Feb 14:02:07 14:03:47 11° 199° (SSW) 14:05:25 437.505
CUSAT 1 10 Feb 14:10:45 14:14:53 25° 274° (W) 14:18:12 437.405
SWISSCUBE 10 Feb 14:13:15 14:17:53 47° 100° (E) 14:22:29 437.505
SO-50 10 Feb 14:16:14 14:20:51 48° 59° (ENE) 14:25:17 436.795
ITAMSAT 1 10 Feb 14:28:03 14:33:12 75° 75° (ENE) 14:38:24 435.822/435.867
Cosmos 2491 10 Feb 14:43:02 14:50:51 39° 88° (E) 14:58:40 435.465 / 435.565
YUBILEINY 10 Feb 14:43:54 14:52:41 64° 82° (E) 15:01:20 435.215
DANDE 10 Feb 14:48:41 14:53:45 26° 276° (W) 14:57:49 436.750
ITUPSAT 1 10 Feb 14:50:16 14:55:05 74° 284° (WNW) 14:59:52 437.325
KKS-1 10 Feb 14:53:27 14:55:13 12° 94° (E) 14:57:00 437.445
BEESAT 10 Feb 14:58:25 15:03:07 58° 285° (WNW) 15:07:48 436.000
JAS-2 10 Feb 15:08:24 15:13:35 19° 265° (W) 15:18:37 435.910
AO-7 10 Feb 15:09:46 15:17:56 60° 69° (ENE) 15:26:06 29.400- 29.500
HORYU 2 10 Feb 15:13:24 15:15:31 13° 67° (ENE) 15:17:37 437.375
M-CUBED/EXP-1 PRIME 10 Feb 15:15:17 15:18:21 24° 70° (ENE) 15:21:14 437.505
ISS 10 Feb 15:23:44 15:26:56 64° 315° (NW) 15:30:10 145.825
AUBIESAT-1 10 Feb 15:24:27 15:27:32 26° 70° (ENE) 15:30:29 437.475
Gurwin Techsat 1B 10 Feb 15:37:38 15:38:56 11° 268° (W) 15:40:14 435.225
SRMSAT 10 Feb 15:37:52 15:40:54 14° 197° (SSW) 15:43:56 437.500
SWISSCUBE 10 Feb 15:52:45 15:55:13 14° 293° (WNW) 15:57:42 437.505
Cosmos 2504 10 Feb 15:54:32 16:02:12 36° 76° (ENE) 16:09:21 435.465 / 435.565
SO-50 10 Feb 15:58:38 16:00:49 13° 253° (WSW) 16:02:58 436.795
STARS 10 Feb 16:08:47 16:13:04 53° 101° (E) 16:17:19 437.465
BEESAT 3 10 Feb 16:25:12 16:28:40 30° 112° (ESE) 16:32:10 437.485
MOZHAYETS 4 10 Feb 16:25:50 16:30:26 61° 101° (E) 16:35:01
KKS-1 10 Feb 16:27:46 16:31:56 43° 286° (WNW) 16:36:06 437.445
Cosmos 2491 10 Feb 16:39:42 16:47:32 37° 283° (WNW) 16:55:23 435.465 / 435.565
YUBILEINY 10 Feb 16:42:29 16:48:36 21° 277° (W) 16:54:43 435.215
HORYU 2 10 Feb 16:47:30 16:51:40 42° 260° (W) 16:55:51 437.375
BEESAT 2 10 Feb 16:50:27 16:54:09 37° 113° (ESE) 16:57:52 435.950
M-CUBED/EXP-1 PRIME 10 Feb 16:50:46 16:52:54 15° 258° (WSW) 16:54:58 437.505
AUBIESAT-1 10 Feb 17:00:08 17:02:03 14° 259° (WSW) 17:03:55 437.475
AO-7 10 Feb 17:04:33 17:10:58 24° 263° (W) 17:17:25 29.400- 29.500
CUBESAT XI-V 10 Feb 17:10:04 17:12:47 15° 94° (E) 17:15:29 437.345
GOMX 1 10 Feb 17:47:00 17:48:51 12° 67° (ENE) 17:50:42 467.674
Cosmos 2504 10 Feb 17:47:55 17:55:24 37° 274° (W) 18:02:27 435.465 / 435.565
STARS 10 Feb 17:48:22 17:48:55 10° 294° (WNW) 17:49:27 437.465
CUTE-I 10 Feb 17:50:26 17:55:35 52° 73° (ENE) 18:00:45 437.470
LilacSat-2 10 Feb 17:56:19 17:59:58 44° 76° (ENE) 18:03:36 437.200
BEESAT 3 10 Feb 18:03:48 18:06:26 17° 306° (NW) 18:09:05 437.485
Cubesat XI-IV 10 Feb 18:04:14 18:09:32 73° 75° (ENE) 18:14:52 437.490
MOZHAYETS 4 10 Feb 18:06:26 18:07:01 10° 294° (WNW) 18:07:37
RS-15 10 Feb 18:10:01 18:14:21 12° 24° (NNE) 18:18:40 29.354- 29.394
BRITE-PL 10 Feb 18:18:57 18:24:29 55° 75° (ENE) 18:29:56 437.365/2234.400
BEESAT 2 10 Feb 18:29:55 18:32:09 14° 307° (NW) 18:34:24 435.950
HO-68 10 Feb 18:35:09 18:39:07 16° 60° (ENE) 18:43:03 435.675
O/OREOS (USA 219) 10 Feb 18:36:30 18:41:06 80° 253° (WSW) 18:45:41 437.305
CUBESAT XI-V 10 Feb 18:45:54 18:50:15 39° 287° (WNW) 18:54:34 437.345
AIST 2 10 Feb 18:51:15 18:55:25 86° 112° (ESE) 18:59:36 435.215
DOVE 4 10 Feb 18:59:00 19:03:36 34° 73° (ENE) 19:08:00 437.250
CANX-2 10 Feb 19:01:22 19:02:55 12° 68° (ENE) 19:04:27 2200.000
AO-85 10 Feb 19:17:41 19:22:02 29° 55° (NE) 19:26:02 145.980
GOMX 1 10 Feb 19:20:54 19:26:21 71° 259° (WSW) 19:31:37 467.674
CUTE-I 10 Feb 19:33:04 19:35:50 14° 266° (W) 19:38:38 437.470
COMPASS 1 10 Feb 19:39:51 19:42:25 16° 70° (ENE) 19:45:00 437.405
STRAND 1 10 Feb 19:45:27 19:50:38 89° 104° (ESE) 19:55:47 437.568
CINEMA 3 10 Feb 19:47:41 19:51:56 35° 74° (ENE) 19:56:01 145.822/145.860
CUTE 1.7 + AOD 2 10 Feb 19:49:10 19:53:06 41° 74° (ENE) 19:57:05 437.475
PCSat 10 Feb 19:50:22 19:54:48 25° 57° (ENE) 19:59:13 145.827
CUBEBUG 2 10 Feb 19:51:55 19:53:19 11° 69° (ENE) 19:54:42 437.445
SEEDS 10 Feb 19:54:12 19:57:59 34° 74° (ENE) 20:01:47 437.485
PRISM 10 Feb 19:58:51 20:02:38 33° 99° (E) 20:06:23 437.425
BRITE-PL 10 Feb 19:59:41 20:03:06 16° 267° (W) 20:06:31 437.365/2234.400
AAUSAT CUBESAT 2 10 Feb 20:06:37 20:10:08 28° 73° (ENE) 20:13:40 437.432
GONETS M04 10 Feb 20:09:10 20:17:42 51° 80° (E) 20:26:12
HO-68 10 Feb 20:18:46 20:25:56 80° 255° (WSW) 20:33:09 435.675
RS-15 10 Feb 20:19:45 20:31:16 45° 53° (NE) 20:42:48 29.354- 29.394
CANX-2 10 Feb 20:34:22 20:38:20 42° 261° (W) 20:42:21 2200.000
DOVE 4 10 Feb 20:37:22 20:41:13 21° 264° (W) 20:44:59 437.250
ZACube-1 10 Feb 20:40:57 20:44:10 21° 72° (ENE) 20:47:20 437.345
FUNcube-1 10 Feb 20:49:14 20:52:43 25° 72° (ENE) 20:56:09 145.935
Cosmos 2499 10 Feb 20:53:05 21:00:42 40° 77° (ENE) 21:07:45 435.465 / 435.565
AO-85 10 Feb 20:58:26 21:02:21 24° 252° (WSW) 21:05:59 145.980
